GFSGL_sfc_thetae_207.txt.gz
Theta_e
300 300 301 301 303 305 306 306 306 308 309 311 313 315 316 315 314 314 312 310 311 310 307 308 308 307 307 306 304 304 305 306 305 306 302 301 300 299 297 296 295 296 296
298 298 298 299 299 299 300 301 302 304 304 304 306 308 307 307 307 307 307 305 305 304 303 301 301 300 300 300 300 300 300 299 300 297 296 296 296 295 294 293 293 293 294
296 297 296 296 297 297 298 298 299 300 300 300 300 301 302 302 302 301 300 300 299 299 298 298 298 297 297 297 297 296 296 296 296 295 294 292 293 293 292 292 291 292 292
295 295 294 294 295 296 296 297 297 297 297 298 297 297 297 297 296 297 295 296 296 296 296 296 295 295 295 294 294 294 293 293 292 292 290 290 290 290 289 289 289 290 290
294 293 293 293 293 294 294 294 295 295 295 295 295 295 295 294 293 294 294 294 294 293 293 292 293 291 289 292 293 293 293 292 290 290 289 288 288 287 287 288 287 289 290
293 292 291 291 291 291 291 291 292 292 293 293 293 293 293 291 292 293 293 292 291 290 290 291 291 287 288 289 290 293 293 291 289 288 288 286 287 287 288 287 286 285 284
291 290 289 289 289 289 289 289 290 290 291 291 292 292 292 292 292 293 292 291 291 290 290 289 289 288 287 290 291 293 292 292 292 290 288 287 287 288 287 286 286 285 284
288 288 287 287 287 287 287 287 287 288 289 289 290 290 290 290 292 292 291 291 290 290 289 289 288 288 288 288 289 289 290 289 289 288 289 288 288 289 288 287 287 286 287
286 286 285 285 285 285 285 285 285 286 287 287 287 288 288 288 290 291 291 289 288 288 288 288 288 287 288 289 288 287 287 287 289 290 290 290 289 288 288 287 285 283 282
285 285 284 284 284 284 284 284 285 285 285 285 286 287 285 286 288 290 290 288 287 287 287 287 283 285 288 289 288 287 286 286 286 286 287 287 287 287 287 287 285 282 281
283 283 282 282 282 283 283 283 283 284 284 284 284 285 285 284 285 288 290 288 286 286 286 285 286 288 289 290 290 287 287 287 287 286 285 285 285 285 285 284 283 282 280
280 280 278 279 280 281 280 281 281 282 281 281 281 282 283 283 284 288 290 290 288 286 285 284 285 288 290 290 288 289 288 286 285 284 283 282 281 281 281 281 281 280 281
274 274 275 276 278 278 278 279 279 279 279 279 279 279 280 281 283 285 289 289 288 285 285 287 288 288 287 286 286 284 282 282 281 280 279 279 279 278 278 277 277 276 276
270 271 273 273 275 275 277 278 278 278 278 278 278 278 278 279 280 281 282 282 283 284 285 284 285 285 284 281 279 278 278 278 277 276 276 275 275 274 273 273 273 271 271
270 271 272 273 271 273 275 277 277 278 279 276 275 275 276 277 280 284 283 282 281 282 278 280 280 281 278 276 274 273 273 274 272 273 272 272 271 271 270 269 268 268 268
270 271 271 271 270 271 272 273 280 282 283 283 283 280 279 282 284 284 282 282 283 283 276 277 275 274 273 272 272 271 270 270 269 270 269 269 268 268 268 267 266 265 266
267 268 268 269 270 270 270 271 271 274 280 282 283 283 282 282 282 281 280 279 279 276 271 271 271 271 270 269 269 269 268 267 267 267 266 265 265 266 266 265 265 264 265
260 264 265 266 266 266 267 267 267 268 269 270 276 280 281 280 279 278 278 273 268 269 269 268 268 268 268 267 267 267 265 265 264 263 262 261 261 263 265 264 263 261 263
262 262 262 263 263 263 264 264 265 264 264 266 270 274 274 276 275 274 273 267 267 266 266 266 266 266 264 264 262 262 261 261 260 261 259 259 259 262 262 261 262 259 260
258 261 261 261 263 263 265 267 269 271 272 272 271 271 269 269 266 263 264 265 264 263 263 262 261 261 261 261 260 260 261 261 260 260 260 259 259 260 261 261 260 262 262
266 267 267 268 269 269 271 271 272 272 271 270 269 267 270 265 263 263 262 262 263 262 262 261 260 259 258 258 258 259 260 260 258 259 260 259 258 261 258 259 260 259 259
256 255 255 257 259 263 265 265 268 267 267 267 267 270 269 262 262 261 260 260 259 258 258 259 258 258 257 259 259 260 260 260 260 259 259 258 259 259 259 260 260 260 260
254 254 253 253 253 256 257 259 264 265 265 264 263 262 262 260 260 260 259 257 257 257 256 257 257 257 256 257 257 259 261 260 259 256 259 259 259 259 258 260 259 260 259
251 252 253 253 253 254 255 259 262 263 263 262 261 261 261 260 260 259 257 255 255 254 253 254 256 257 257 257 257 256 255 254 254 255 256 258 258 257 258 257 257 257 257
250 251 253 254 255 258 259 260 261 261 261 261 261 261 260 259 258 256 254 254 252 253 254 252 251 252 252 252 254 256 257 254 254 252 254 255 256 255 254 255 255 256 256
251 251 253 254 256 258 260 260 260 261 260 260 260 260 259 258 256 256 254 253 254 253 251 251 251 250 251 253 254 262 263 261 256 252 254 256 257 255 255 254 254 255 254

GFSGL_sfc_thetae_210.txt.gz
Theta_e
303 303 303 303 305 307 308 309 309 311 311 314 317 320 320 320 320 320 318 316 315 313 312 315 315 314 315 314 313 313 312 312 307 308 308 307 306 306 304 302 299 298 298
302 302 302 302 303 303 303 304 306 306 307 306 308 311 312 312 312 315 314 313 313 313 312 309 309 305 307 307 307 307 306 307 306 302 304 302 300 301 300 298 296 295 296
301 301 300 300 301 301 301 302 303 303 303 303 303 303 303 305 306 307 306 307 307 306 305 304 304 303 303 303 302 302 302 300 301 300 299 298 298 297 296 296 295 295 295
299 299 299 298 299 299 300 300 301 301 301 301 301 301 301 300 299 300 300 301 301 300 300 300 300 299 299 299 299 299 299 298 298 297 296 295 295 295 293 292 292 294 292
298 297 296 297 297 297 297 297 298 298 299 299 299 299 299 298 296 298 299 299 299 298 298 297 298 295 291 294 296 298 297 297 296 295 294 293 293 291 290 291 289 291 292
297 295 295 295 295 295 295 295 296 296 296 297 297 297 298 296 294 293 294 297 296 295 296 296 296 289 290 290 290 293 296 296 295 294 293 291 291 290 290 289 289 287 286
295 294 294 294 294 293 293 293 293 294 295 295 295 296 296 297 293 293 292 295 295 296 295 295 294 292 290 294 291 292 292 293 293 294 291 291 290 290 289 288 288 287 286
293 293 292 291 292 292 292 292 292 292 292 292 293 293 293 294 292 292 291 294 295 295 295 294 293 293 293 291 292 292 293 293 293 292 292 292 291 291 290 289 287 286 287
292 291 291 290 290 290 290 290 290 291 291 291 290 291 292 292 291 290 291 292 292 292 293 293 292 292 290 289 290 290 291 291 290 290 290 290 290 289 288 287 285 283 282
291 290 289 289 288 289 289 289 289 290 288 289 289 291 288 290 290 289 290 291 291 291 292 291 284 288 289 289 291 291 289 290 289 288 289 289 288 288 287 287 286 282 282
288 286 286 286 285 287 287 287 287 287 287 288 287 289 288 287 288 289 290 291 290 289 289 289 290 288 288 290 290 291 289 290 288 288 288 287 286 286 286 285 284 283 281
285 283 283 283 284 284 284 286 285 286 286 286 286 287 287 287 286 289 290 290 289 289 287 288 288 289 290 290 289 289 289 287 287 286 285 284 283 282 281 281 281 281 281
281 280 281 281 282 282 284 284 285 285 285 285 284 285 285 285 286 286 286 289 288 287 288 288 288 287 287 285 285 284 283 284 284 283 281 281 279 278 279 278 278 278 278
281 280 280 280 282 281 282 283 284 284 284 283 283 284 283 284 285 285 285 287 285 287 287 286 286 284 283 281 280 280 280 279 279 279 279 278 278 277 276 275 275 274 276
279 279 281 281 281 281 281 283 282 283 283 283 283 282 282 283 283 285 284 285 285 284 284 285 284 283 280 279 277 276 277 276 276 275 275 275 275 275 274 273 272 273 273
281 281 281 281 280 279 280 281 281 283 283 283 283 282 283 283 284 283 282 281 282 283 282 281 279 278 277 276 276 274 273 273 272 273 273 273 272 272 272 271 271 271 271
279 279 279 276 278 279 279 279 280 280 280 283 282 282 282 282 282 281 280 278 279 279 278 277 276 275 274 274 273 272 271 270 270 271 270 270 270 270 270 270 270 270 271
273 269 276 277 277 277 277 277 276 277 278 280 279 280 281 280 278 278 278 276 275 274 274 273 273 272 272 272 271 270 270 270 269 268 268 267 268 269 270 269 270 268 269
273 274 274 274 274 273 274 274 275 274 275 276 277 277 277 276 275 274 275 274 272 271 271 270 270 270 269 269 268 268 268 267 267 268 267 267 267 269 268 268 269 264 264
270 267 269 273 273 273 273 274 274 275 276 276 276 277 275 274 273 270 270 270 270 269 269 268 267 267 267 268 268 269 269 268 268 268 267 267 267 268 267 267 266 267 267
271 271 268 272 273 274 274 274 275 275 275 275 275 274 272 272 270 269 268 268 268 268 267 267 267 266 267 267 268 268 267 267 266 266 267 267 266 267 266 267 268 267 266
267 267 268 268 269 270 271 272 272 273 273 272 272 272 270 269 268 267 266 266 265 265 266 267 266 266 265 266 267 268 267 267 267 267 266 265 267 266 267 267 267 266 266
266 266 266 266 266 265 268 269 270 271 271 270 269 267 267 267 266 266 264 264 264 264 264 266 265 264 264 264 265 266 267 266 265 264 266 266 266 266 266 265 264 264 264
264 264 265 265 265 266 267 268 268 267 269 268 267 267 266 265 265 263 263 263 263 262 262 263 263 264 263 264 265 265 264 262 262 262 264 265 265 265 265 264 263 262 263
263 263 264 265 265 266 266 267 267 267 267 267 266 265 265 264 263 263 262 262 261 262 261 261 261 262 262 262 263 263 261 258 260 259 263 263 262 261 261 261 262 262 261
262 262 263 264 264 265 266 266 266 266 266 266 265 265 264 264 263 263 261 261 261 261 261 261 261 261 262 264 265 263 264 262 259 257 264 264 263 262 262 261 260 261 260

GFSGL_sfc_thetae_216.txt.gz
Theta_e
302 302 302 302 303 303 304 304 306 306 306 307 310 311 311 312 313 316 313 313 313 312 312 309 310 311 310 312 309 308 307 306 301 303 303 302 301 300 300 298 297 294 293
300 301 301 301 301 300 301 301 302 302 302 302 303 303 303 303 305 305 306 306 306 306 306 305 305 305 302 304 303 302 303 302 301 298 299 297 297 296 295 294 295 294 292
299 298 298 298 298 298 298 299 300 300 300 300 300 299 299 299 299 299 299 299 299 299 299 299 299 299 297 298 298 297 297 299 296 295 294 294 293 293 291 291 292 291 293
297 296 295 295 296 296 296 297 297 297 297 297 298 298 298 296 295 295 296 296 296 296 297 296 296 295 295 294 294 294 295 293 293 292 291 291 291 291 289 287 287 288 288
295 295 294 295 295 294 294 294 295 295 295 295 295 295 296 294 293 292 293 293 294 294 294 294 294 291 289 291 292 292 293 291 291 290 289 288 288 284 287 287 285 286 286
294 293 294 293 293 292 292 292 292 292 293 293 292 292 292 292 292 292 291 291 292 292 292 293 293 290 291 292 291 292 291 290 291 290 288 287 288 288 287 285 284 280 280
292 292 292 292 291 291 291 291 290 291 291 291 291 291 291 292 292 291 290 290 291 292 292 291 291 291 289 290 291 291 289 289 293 290 287 287 286 287 286 284 284 284 284
291 290 290 289 289 289 289 288 289 289 289 289 289 289 290 291 291 291 290 290 290 290 290 289 289 289 289 288 288 287 288 289 289 290 288 288 288 287 288 287 285 285 284
289 288 287 287 287 286 286 286 287 287 287 286 287 288 287 288 290 291 289 288 288 288 288 288 287 286 288 290 286 286 286 287 290 291 291 291 290 289 288 286 282 282 280
287 285 285 285 286 286 284 284 284 285 284 284 285 286 284 285 289 290 290 287 285 284 285 286 287 286 289 290 286 286 285 286 288 286 288 289 289 287 286 284 282 280 279
285 284 284 283 283 284 283 283 283 283 283 283 284 284 284 283 284 289 290 286 283 282 283 284 286 289 289 289 289 288 287 287 286 285 285 285 284 282 281 281 281 279 277
284 283 280 280 282 283 280 282 282 282 280 280 281 282 282 283 286 287 288 288 288 283 284 285 286 287 286 286 285 285 286 285 284 284 282 279 278 277 278 278 279 279 279
278 276 277 278 280 280 279 280 279 279 278 280 280 278 280 282 282 286 286 286 286 284 285 286 286 285 284 282 283 282 279 278 279 279 277 277 277 277 277 275 276 276 276
274 275 276 275 278 277 280 280 278 277 277 279 277 276 277 279 282 283 283 282 283 284 285 284 284 284 283 279 276 278 277 276 275 274 273 273 273 272 270 273 271 271 268
274 274 275 276 275 276 277 277 279 278 278 274 277 275 272 274 281 283 282 281 281 282 282 282 281 280 278 277 273 272 273 272 271 270 269 269 270 269 267 266 265 262 262
273 274 275 275 274 274 274 274 283 283 284 284 284 280 281 282 283 283 282 281 281 282 280 279 277 275 270 269 269 267 267 266 268 269 266 265 262 262 262 263 261 260 259
267 272 272 273 273 272 272 272 271 276 282 283 283 282 282 282 281 280 280 280 280 280 277 270 268 268 266 265 264 265 264 265 264 264 262 262 262 260 261 261 260 258 257
263 268 266 269 269 269 269 269 269 268 268 270 281 279 282 281 279 279 279 277 266 268 266 263 263 264 264 264 264 262 262 262 261 261 260 258 260 258 257 257 258 256 255
265 267 267 266 266 266 267 267 267 266 266 265 267 275 276 278 278 277 276 264 267 262 260 262 260 261 260 259 259 258 257 257 257 257 256 256 257 256 256 255 257 258 257
268 268 269 267 265 265 265 265 266 269 273 274 273 270 266 268 265 261 261 260 260 259 258 258 258 257 258 258 258 258 259 258 257 256 256 255 256 255 256 255 257 255 254
265 267 269 269 270 272 273 274 274 273 273 271 271 269 274 267 263 261 259 259 258 258 258 257 257 257 257 257 257 257 256 256 255 255 254 254 254 256 254 255 255 256 255
262 264 264 264 266 267 267 269 268 268 268 268 264 267 273 262 265 262 257 257 257 257 256 258 256 254 254 255 255 255 254 254 253 253 253 253 254 256 254 253 253 253 251
261 263 265 265 264 266 265 266 265 268 266 265 263 263 261 261 263 260 257 257 257 258 256 255 254 254 253 254 253 253 255 252 252 250 252 252 253 253 252 252 251 250 250
256 257 258 260 260 258 260 260 261 263 263 263 262 262 261 261 261 260 260 261 259 255 253 253 253 253 252 253 252 251 250 250 249 250 251 252 251 250 250 250 249 249 249
255 255 255 256 256 257 259 259 261 261 262 261 262 261 260 261 261 261 260 260 258 253 252 253 252 252 252 252 252 251 254 252 251 254 251 251 252 249 247 248 248 248 251
255 255 255 255 257 258 259 260 260 260 260 260 261 260 260 260 261 261 259 258 253 253 253 252 252 253 253 253 252 257 262 261 255 256 252 251 252 249 248 248 249 248 248

GFSGL_sfc_thetae_219.txt.gz
Theta_e
302 302 302 303 304 304 304 304 304 305 306 308 309 310 309 309 310 311 311 310 310 310 309 307 306 307 305 307 309 306 307 307 305 302 301 300 300 299 299 297 296 294 292
301 301 300 300 300 300 299 300 301 300 300 300 301 301 300 300 300 300 301 301 301 301 300 300 299 301 299 300 300 299 300 300 299 297 297 296 295 294 293 292 293 293 291
298 298 297 298 298 297 297 297 298 298 298 298 298 297 297 296 296 296 297 297 297 296 296 295 295 295 294 294 295 295 295 296 294 293 293 292 292 291 290 290 290 290 292
296 295 294 295 295 295 295 295 296 296 295 296 296 296 294 293 293 293 293 294 294 294 293 293 293 293 292 291 291 291 292 291 290 289 288 288 289 289 287 286 286 286 287
294 294 293 293 293 293 293 293 293 293 293 293 293 293 293 292 291 290 291 291 291 292 292 292 292 288 289 290 290 289 289 289 288 287 287 286 286 284 286 286 284 284 284
292 292 292 292 291 291 291 291 291 291 291 291 291 290 290 290 291 291 290 290 291 290 290 290 290 288 289 291 292 292 288 288 288 287 286 285 286 286 285 284 283 280 280
291 290 290 290 290 289 289 289 289 289 289 289 289 289 289 289 291 291 289 289 289 289 289 288 288 288 287 287 289 290 288 289 291 289 287 286 286 287 287 285 283 281 281
289 289 288 288 288 287 288 287 287 287 287 287 287 288 287 289 291 291 289 288 288 287 287 286 285 285 287 286 286 286 286 286 287 287 289 289 288 288 287 287 285 284 283
288 287 286 287 286 286 286 285 286 286 285 285 285 286 285 285 290 291 288 286 285 285 285 285 285 285 289 290 286 285 285 285 290 291 291 291 289 288 287 286 281 280 279
286 285 284 285 285 285 284 284 283 284 284 283 284 284 282 284 289 290 287 284 284 282 283 285 287 287 289 289 285 285 285 285 287 286 287 287 286 284 283 282 279 274 275
284 284 283 283 283 283 283 283 282 283 283 283 283 283 282 282 285 289 289 284 282 282 284 285 285 287 287 287 286 285 285 285 285 285 284 282 281 280 279 279 279 277 274
283 282 280 279 281 282 279 282 281 282 280 280 281 281 281 283 285 286 287 287 286 283 283 284 285 286 285 285 282 283 283 282 279 278 277 277 276 276 276 277 278 277 279
278 275 275 276 279 279 278 279 278 279 277 279 278 277 279 281 281 284 284 285 285 284 284 285 285 284 282 279 281 280 277 276 274 273 273 274 275 275 273 272 273 272 275
273 274 275 275 277 276 278 279 277 276 276 277 276 274 275 277 282 282 282 281 281 283 284 284 284 282 281 277 275 275 274 274 273 271 270 268 268 268 269 270 265 265 261
273 274 275 275 273 275 276 276 278 277 278 272 272 275 270 271 281 283 282 280 281 282 281 281 279 278 276 272 268 268 268 268 267 264 263 263 263 264 265 263 261 259 259
270 272 273 274 272 273 272 273 282 283 284 284 284 279 280 282 283 282 282 281 282 282 275 277 275 271 264 263 262 262 263 263 262 262 259 260 259 261 261 261 259 256 257
262 267 269 270 272 270 270 270 270 276 283 284 284 282 282 282 281 281 281 280 280 278 273 271 263 263 261 261 261 260 260 260 259 260 259 259 258 258 259 259 258 254 256
259 263 264 266 265 266 266 267 266 268 266 271 279 279 281 281 280 280 279 274 263 265 260 259 259 259 259 259 258 258 258 258 258 259 258 256 256 256 257 255 255 254 253
265 264 263 266 265 264 265 264 264 263 263 263 268 276 279 280 278 277 275 262 260 257 257 259 256 257 257 256 255 255 254 255 254 254 253 254 253 254 253 253 254 255 253
261 266 265 266 269 270 266 267 268 268 270 273 274 274 271 269 264 261 258 256 257 255 255 257 254 254 255 255 254 254 255 254 254 253 252 252 252 252 252 252 252 251 251
259 260 262 260 261 264 266 269 272 273 273 272 272 272 274 266 264 261 256 255 255 254 254 254 253 254 253 253 253 253 252 252 251 251 251 251 250 252 249 250 250 250 249
256 257 257 258 260 263 264 264 265 266 268 266 266 270 272 264 262 261 259 257 256 258 254 255 252 252 252 253 253 252 251 251 250 249 250 250 250 249 249 249 249 249 249
254 255 256 256 257 260 262 264 264 266 264 265 265 263 263 261 260 260 261 259 259 258 253 252 253 252 250 251 249 251 253 251 250 248 249 249 248 249 248 248 247 249 248
253 253 253 253 254 255 255 258 260 262 263 262 261 260 261 259 259 260 260 259 259 256 251 251 250 251 251 250 248 247 247 247 246 247 249 251 248 247 248 247 247 246 247
252 252 252 253 253 254 255 255 258 259 260 261 260 259 258 259 259 259 259 259 258 255 251 250 249 250 250 250 249 249 253 253 249 249 248 250 251 247 246 245 246 248 248
252 252 252 252 254 254 255 255 256 257 258 259 260 259 259 259 259 260 259 259 256 251 251 250 250 251 251 250 250 255 261 260 254 252 249 251 251 247 246 246 246 246 246

GFSGL_sfc_thetae_222.txt.gz
Theta_e
306 305 305 306 306 306 305 304 304 305 308 308 307 306 304 303 305 305 304 306 306 304 302 303 302 302 301 301 302 304 303 305 302 304 300 299 298 297 297 295 294 292 291
302 301 300 300 300 300 299 299 300 299 300 299 299 298 297 297 297 298 298 298 297 296 297 296 295 297 295 296 296 296 295 295 297 295 295 294 293 292 291 291 292 292 290
298 298 297 297 297 297 296 296 297 297 297 296 295 294 294 294 294 294 295 295 295 294 294 294 293 293 292 291 291 290 291 293 291 291 290 290 291 290 289 289 289 289 290
296 295 294 294 294 294 294 294 294 294 294 294 294 293 292 291 291 292 292 292 293 293 292 292 291 290 289 289 289 288 289 288 288 288 287 287 287 288 286 285 285 285 285
293 292 291 292 292 292 292 292 292 292 292 292 292 291 291 290 290 289 290 291 291 290 290 290 290 286 288 290 289 288 288 287 286 286 285 284 284 283 284 284 283 283 283
291 290 291 291 290 290 290 290 290 290 290 290 290 290 288 289 292 292 290 289 289 289 287 288 288 286 288 290 291 291 288 286 286 286 284 285 286 286 286 285 285 282 280
289 289 289 289 288 288 289 289 288 288 288 288 288 288 287 289 292 291 289 288 288 287 286 285 286 286 285 286 288 289 287 291 291 289 286 286 286 286 287 285 284 283 282
287 287 287 287 287 287 287 287 286 286 286 286 286 286 286 289 291 291 289 287 286 285 285 284 284 285 287 285 285 285 285 285 286 286 289 288 287 287 286 286 284 283 281
286 286 286 286 286 286 286 285 285 285 284 284 284 284 284 285 291 289 286 285 284 284 285 286 287 287 289 289 285 284 284 285 289 291 290 289 287 285 284 282 278 275 272
285 285 284 285 285 285 284 284 284 284 284 283 283 283 282 284 290 289 286 284 282 283 285 285 286 285 287 287 284 284 282 282 285 285 286 283 282 281 281 280 278 275 275
284 284 283 283 283 283 283 283 283 283 283 282 283 282 282 283 285 288 288 284 282 283 284 284 284 286 286 285 284 283 283 283 283 282 280 279 279 279 277 277 278 276 274
282 281 280 279 281 282 279 281 280 281 279 278 280 280 281 282 284 285 286 286 286 283 283 284 284 284 283 283 281 282 282 279 276 274 274 274 274 273 273 275 275 277 277
277 275 275 276 279 279 278 279 277 278 276 278 278 277 278 280 280 283 283 284 284 284 284 284 285 282 280 278 280 279 275 274 272 270 270 272 272 272 271 269 269 271 267
271 273 275 274 276 275 277 278 276 275 275 276 276 274 277 276 281 282 281 281 282 283 283 283 282 281 278 274 272 272 272 272 271 268 266 265 266 266 265 267 262 262 259
271 272 272 274 272 274 275 275 277 277 277 271 271 272 269 270 282 283 282 281 281 282 281 281 278 276 268 267 266 266 266 266 264 261 261 260 261 262 262 260 258 257 257
268 269 269 270 270 272 271 273 280 283 284 284 283 278 280 283 283 282 281 281 281 282 271 277 273 265 263 261 260 261 261 260 259 260 257 257 257 258 258 258 257 254 255
260 265 267 268 269 268 268 268 269 275 282 284 284 283 283 282 281 281 281 280 279 275 266 264 260 261 259 259 259 259 258 258 256 258 256 256 256 255 256 257 256 253 255
259 262 263 264 264 264 264 265 266 268 272 272 279 280 282 282 281 279 280 272 262 264 257 257 257 257 257 257 257 257 257 256 256 256 256 253 252 253 254 253 253 251 250
262 262 261 263 264 264 264 266 269 270 267 267 272 277 280 281 278 276 274 260 257 256 255 256 254 255 255 254 253 253 253 253 252 252 251 251 250 251 251 249 250 252 251
258 263 261 259 261 264 265 265 265 268 271 270 272 274 273 272 269 266 262 257 258 255 254 255 253 252 253 253 252 252 252 252 252 251 250 250 249 249 249 249 248 250 249
254 255 258 255 257 258 261 263 266 266 269 271 272 273 275 270 267 263 260 256 256 254 253 253 252 252 251 251 251 251 252 250 249 249 249 248 247 250 246 247 247 246 247
252 252 252 254 255 256 257 260 262 264 264 265 265 269 272 266 264 262 259 258 257 253 253 254 251 251 250 252 251 251 250 250 248 247 248 247 247 246 247 247 247 247 247
252 252 252 252 252 254 255 255 258 260 261 263 263 262 261 262 261 259 258 257 258 257 255 252 251 251 248 248 248 251 253 251 249 246 247 247 246 246 245 246 246 247 247
251 251 252 252 252 252 253 254 254 257 260 259 257 257 258 258 257 257 258 258 259 255 253 250 249 250 249 248 246 246 246 245 243 245 247 248 246 245 246 245 245 245 246
250 251 251 251 251 252 252 253 254 254 255 256 256 256 255 256 256 256 258 258 257 257 251 248 248 249 249 249 248 249 252 251 246 247 245 247 247 245 244 244 244 246 245
250 250 250 250 252 251 252 253 253 254 254 254 255 255 255 256 256 257 258 258 258 252 250 249 249 249 249 248 249 253 260 258 251 250 246 249 249 245 244 244 244 244 244